Location: Beaver Brook Station
(42.3793°N, 71.2203°W)
Time: 00:47:35
(UTC+00:00)

Cosmos 2228 - Pass Details

Date: 29 October 2020
Orbit: 590 x 617 km, 82.5° (Epoch: 05 December)

Event Time Altitude Azimuth Distance (km) Brightness Sun altitude
Rises 22:11:28 0° 191° (SSW) 2,811 6.8 -6.2°
Reaches altitude 10° 22:13:40 10° 194° (SSW) 1,917 6.0 -6.6°
Maximum altitude 22:17:53 72° 278° (W) 628 3.3 -7.3°
Drops below altitude 10° 22:22:11 10° 4° (N) 1,946 5.5 -8.1°
Sets 22:24:25 0° 7° (N) 2,858 6.3 -8.5°
